Tracking 25193 objects as of 18-Jan-2022
HD Live streaming from Space Station
objects crossing your sky now

GORIZONT 32

Track GORIZONT 32 now!
GORIZONT 32 is classified as:


NORAD ID: 23880
Int'l Code: 1996-034A
Perigee: 35,778.7 km
Apogee: 35,861.4 km
Inclination: 14.5 °
Period: 1,437.4 minutes
Semi major axis: 42191 km
RCS: 17.7827 m2 (large)
Launch date: May 25, 1996
Source: Commonwealth of Independent States (former USSR) (CIS)
Launch site: TYURATAM MISSILE AND SPACE COMPLEX (TTMTR)

Telecommunications; augment television channels available to the people of Siberia.
aabbcc
Your satellite tracking list
Your tracking list is empty




NASA's NSSDC Master Catalog

Two Line Element Set (TLE):
1 23880U 96034A   22017.41712118 -.00000293  00000-0  00000-0 0  9995
2 23880  14.4614   7.2834 0009798 351.2154 218.1073  1.00177964 93886
Source of the keplerian elements: AFSPC